Location: Unspecified
(0.0000°N, 0.0000°E)
Time: 07:57:57
(UTC+00:00)

N. Korean satellite - Pass Details

Date: 22 November 2017
Orbit: 460 x 514 km, 97.2° (Epoch: 20 November)

Event Time Altitude Azimuth Distance (km) Brightness Sun altitude
Rises 18:51:23 0° 187° (S) 2,482 10.6 -15.2°
Reaches altitude 10° 18:53:37 10° 199° (SSW) 1,606 9.8 -15.8°
Maximum altitude 18:56:34 27° 259° (W) 916 8.8 -16.5°
Drops below altitude 10° 18:59:33 10° 319° (NW) 1,608 9.4 -17.1°
Sets 19:01:47 0° 331° (NNW) 2,486 10.3 -17.7°
